Wind_Speed
22 22 22 22 23 24 23 22 21 20 19 19 19 18 17 16 15 14 14 14 14 13 13 13 14 15 15 15 14 14 13 12 11 10 10 9 9 9 9 9 9 9 9 8 8 7 7 7 7 7 7 6 6 5 5 4 4 4 4 4 4 4 4 4 4 4 3 3 4 4 4 5 4 4 4 4 4 4 4 4 4 4 4 3 4
22 23 22 23 24 25 25 24 23 22 21 21 20 19 19 18 17 16 15 14 14 14 13 14 14 14 15 15 15 14 14 13 12 12 11 10 10 10 9 9 9 9 9 9 8 8 7 7 7 7 7 7 7 6 5 5 5 4 4 4 4 4 4 4 5 5 4 3 3 3 3 4 3 3 3 3 3 3 3 2 2 3 4 3 3
20 21 22 23 24 25 26 25 24 24 23 23 22 21 21 20 19 18 17 16 15 15 15 15 15 15 15 15 15 15 15 14 14 13 12 11 11 10 10 9 9 10 10 9 9 8 8 8 8 7 7 7 7 7 7 7 6 6 5 5 5 5 5 5 5 5 4 3 2 2 2 2 2 2 2 2 2 2 2 1 1 2 4 4 4
17 18 20 22 23 24 24 25 25 25 25 25 24 24 23 22 21 20 19 18 17 16 16 16 16 16 15 16 16 16 15 15 15 14 13 12 12 11 11 10 10 10 10 10 9 9 9 9 8 7 6 6 7 7 7 7 7 7 7 6 6 6 6 6 6 7 6 4 3 3 3 3 3 2 2 2 2 2 2 2 2 3 4 5 5
18 18 19 20 21 22 23 24 25 26 27 27 26 25 25 24 23 22 21 21 20 18 18 18 18 17 17 17 17 16 16 16 16 15 14 13 13 12 12 11 10 10 10 10 9 9 9 9 8 7 6 6 7 7 7 7 7 7 7 7 7 7 7 7 7 8 8 7 5 4 4 5 5 4 3 3 3 3 3 4 4 5 6 6 7
22 21 20 20 21 21 22 23 24 26 27 28 27 26 25 25 25 25 24 24 23 21 20 20 20 19 18 18 17 17 17 16 16 16 15 14 13 13 13 12 11 11 11 10 10 10 10 10 9 8 8 7 7 8 8 8 8 7 7 7 8 8 8 8 8 9 9 8 7 6 6 6 6 5 5 5 5 5 5 5 5 6 7 7 7
25 24 22 22 21 21 21 22 23 25 26 27 27 26 25 25 26 26 26 26 25 24 24 23 22 21 20 19 18 18 17 17 16 16 16 15 14 14 13 13 12 12 12 12 12 11 11 12 11 10 10 10 9 9 9 9 9 8 8 8 8 8 8 9 9 10 10 9 9 8 8 7 7 6 5 5 6 6 6 7 6 6 7 8 8
28 26 26 25 24 23 22 22 23 24 25 27 28 28 27 26 26 26 27 27 27 27 26 26 25 23 21 21 20 19 19 18 17 17 17 16 15 14 14 13 13 13 13 13 13 13 13 13 13 13 13 12 12 12 11 11 11 11 10 10 10 10 10 10 10 10 11 11 10 10 10 9 8 8 7 7 7 6 7 8 8 8 9 10 11
31 30 29 29 28 26 26 25 25 26 26 27 28 29 30 29 28 27 27 27 28 28 28 27 26 25 23 22 21 20 20 20 19 19 18 17 16 15 14 14 14 13 14 14 15 15 15 15 15 15 15 15 15 15 14 14 14 13 13 13 13 12 12 12 12 12 12 12 12 12 12 12 11 11 11 10 9 9 9 10 10 11 11 13 15
34 34 32 32 32 31 30 29 28 28 28 28 28 29 31 31 30 28 27 27 27 27 27 27 27 25 24 23 22 22 22 21 21 20 20 19 18 17 16 16 15 15 15 16 16 17 17 17 17 17 17 17 17 17 17 17 16 16 15 15 16 16 16 15 15 14 14 14 14 14 15 15 14 13 13 13 12 11 12 12 12 12 11 13 17
34 36 35 34 35 35 34 33 31 30 29 29 30 30 30 31 31 30 28 27 27 27 27 27 27 26 25 24 23 23 23 23 23 22 21 21 21 20 19 18 18 17 17 18 18 18 18 18 18 18 18 18 18 18 18 18 17 17 16 16 16 17 17 17 17 16 15 15 16 16 16 17 17 15 14 14 12 12 12 12 12 12 12 13 16
33 36 38 38 38 37 35 33 33 32 30 30 31 32 31 31 31 31 31 30 29 29 28 28 27 26 26 25 25 25 25 25 24 24 23 23 22 22 21 21 20 20 20 20 20 20 19 18 18 18 18 18 18 18 18 18 17 17 17 17 17 17 18 18 18 18 17 16 16 17 17 17 17 18 16 14 13 12 12 11 11 12 12 13 15
31 33 36 38 38 36 35 34 34 34 33 33 34 34 33 32 32 33 34 33 32 31 31 31 29 28 28 27 27 27 27 27 26 25 25 25 25 24 24 23 23 22 22 22 21 20 19 19 18 18 18 18 18 18 18 18 18 18 18 18 18 18 18 18 19 19 18 18 18 19 19 18 17 19 19 16 15 15 14 13 13 12 13 14 15
25 26 28 31 33 33 34 34 34 33 33 35 37 36 35 34 34 35 35 35 35 34 34 33 32 31 30 30 30 30 29 29 28 27 27 27 26 26 26 25 24 24 24 24 23 22 21 19 19 20 20 20 19 18 18 18 18 19 19 19 19 19 19 19 19 19 19 19 19 20 21 21 20 20 21 20 19 19 18 17 17 16 16 15 16
22 22 23 24 26 28 29 30 30 28 29 31 33 35 37 38 37 36 36 38 38 37 36 34 33 33 33 32 32 31 30 30 30 29 29 29 28 28 27 27 26 25 25 25 25 25 24 22 22 22 22 21 20 19 19 19 19 20 20 20 21 21 21 21 21 20 20 20 20 21 22 23 23 23 23 23 22 22 21 20 21 20 19 18 18
23 23 24 23 25 26 25 26 26 25 25 25 26 30 36 40 40 38 36 38 39 38 37 37 35 34 33 32 32 32 31 31 31 31 31 30 30 29 29 28 27 27 27 27 27 27 27 26 25 25 25 23 22 21 21 20 21 21 21 21 22 22 23 23 22 22 21 21 21 21 22 23 24 24 25 25 25 25 24 23 23 23 20 19 20
24 24 24 22 23 24 25 25 24 23 23 22 23 26 31 36 40 40 38 38 38 37 37 38 37 36 35 35 34 33 32 32 32 32 32 31 31 30 30 29 29 28 28 28 29 29 29 28 28 28 27 27 26 25 24 23 23 23 22 22 23 23 24 25 24 23 23 23 22 22 22 23 24 24 25 26 27 26 25 25 26 25 22 21 21
26 26 25 22 21 21 22 23 21 20 20 20 22 24 26 29 34 38 39 39 38 37 36 37 38 39 39 38 36 34 34 33 33 33 33 32 31 30 30 30 30 30 30 30 30 30 30 31 30 30 30 29 29 28 27 26 25 25 24 24 24 25 25 25 25 25 25 25 24 23 23 23 24 24 26 27 28 28 27 26 27 27 25 23 23
28 28 28 27 25 23 22 22 21 18 17 16 17 20 22 23 26 30 34 38 39 38 37 37 39 40 39 38 37 36 36 35 35 35 34 33 32 32 31 31 31 30 30 30 31 31 32 32 32 32 32 31 31 30 29 28 27 27 27 26 26 26 26 26 26 26 27 27 27 26 25 25 26 26 26 27 28 28 28 27 27 28 26 25 25
29 28 29 29 30 28 25 24 23 21 20 18 16 16 17 17 17 20 24 29 34 38 38 38 38 37 37 37 37 37 38 38 37 37 35 33 33 34 33 33 32 32 31 31 31 32 32 33 33 33 33 33 32 31 31 30 29 29 29 29 28 28 28 27 27 27 27 27 28 28 28 28 28 28 28 28 29 29 29 29 28 29 27 26 26
29 29 29 30 31 31 30 29 27 25 24 24 21 19 18 15 15 17 17 17 21 29 35 37 37 37 37 38 37 37 39 40 39 38 37 35 35 36 37 35 33 32 32 31 32 32 33 33 34 34 34 34 34 33 33 32 32 31 31 31 30 30 29 29 29 29 28 28 29 30 30 31 31 30 30 30 31 31 31 30 30 30 30 28 28
30 29 29 30 31 31 31 32 31 28 27 26 26 25 25 22 21 22 21 17 16 20 25 30 33 34 35 37 37 37 39 40 38 38 38 37 36 36 38 38 36 34 33 33 33 33 34 35 35 35 35 35 35 35 35 34 34 33 33 33 33 32 32 32 31 31 30 31 31 32 32 33 33 33 33 33 33 33 33 33 32 32 31 31 30
31 30 30 31 32 31 30 31 31 29 28 28 29 28 28 27 26 26 27 24 20 19 18 19 22 25 27 29 31 32 34 36 36 37 38 38 38 38 38 38 38 37 36 35 35 35 35 36 36 36 37 37 36 36 36 36 35 35 35 35 35 35 35 34 34 33 32 32 32 33 34 35 35 35 35 36 36 36 36 36 35 35 34 34 33
31 31 31 32 32 32 31 31 31 30 29 29 30 29 28 27 27 26 27 26 24 22 21 19 18 19 20 21 22 24 25 27 29 31 34 36 37 38 40 41 41 40 38 36 36 36 36 36 37 38 38 39 39 39 38 37 37 36 36 35 35 36 36 36 35 34 33 33 33 33 34 36 37 37 37 38 38 38 38 38 38 38 37 36 35
34 32 32 32 33 33 32 32 32 32 31 31 31 30 28 27 26 26 27 28 27 26 26 25 24 23 22 22 22 23 24 23 23 22 23 26 29 30 32 36 39 41 42 40 38 37 36 37 37 38 39 39 40 40 40 40 39 38 38 37 36 36 36 36 36 36 35 34 34 34 34 35 36 37 38 39 39 40 40 39 39 39 39 37 36
37 35 34 34 34 33 33 32 32 32 33 33 33 33 31 30 29 29 29 30 29 28 28 28 28 28 27 27 27 26 26 26 25 23 22 25 27 25 24 26 28 32 37 39 39 38 38 38 39 39 39 39 40 40 41 41 41 40 39 38 37 37 37 37 37 36 36 36 35 35 35 35 36 36 37 38 38 39 39 39 39 39 39 38 37
39 38 37 37 36 36 35 34 33 32 32 33 33 33 33 33 32 31 31 31 30 30 29 29 29 30 29 29 29 29 29 29 30 29 29 30 30 28 27 27 26 25 27 30 33 35 36 37 39 38 37 37 37 37 37 37 37 38 39 40 40 40 39 39 38 37 36 36 36 36 36 36 35 35 36 36 37 38 39 39 39 39 38 38 37
41 41 40 40 40 39 39 38 37 35 34 34 34 34 34 34 33 32 32 32 31 31 30 31 31 32 32 32 32 32 33 32 31 31 31 31 32 31 30 31 31 30 29 29 30 31 32 33 34 35 34 34 35 35 34 32 32 33 35 37 37 37 37 36 35 34 34 35 36 36 36 36 36 35 35 35 36 37 38 38 38 38 38 37 37
44 44 43 43 43 42 42 41 40 39 38 37 37 36 36 36 35 35 34 34 34 33 33 33 34 34 35 35 34 34 34 33 33 32 30 30 31 32 32 33 33 34 34 34 34 34 35 35 35 35 36 36 36 36 36 36 34 34 34 34 34 34 34 34 33 33 34 35 36 36 36 37 37 36 36 36 36 37 38 38 38 39 38 38 37
46 45 45 45 45 45 45 45 44 43 42 41 40 40 40 39 39 38 38 38 38 37 37 37 37 37 37 37 37 36 35 35 34 34 34 33 33 33 34 35 35 36 37 38 38 38 38 38 38 39 39 39 39 39 39 39 39 39 38 38 37 37 37 36 36 36 37 37 38 39 39 40 40 40 40 39 39 39 39 39 39 39 39 39 39
49 48 47 47 47 47 47 47 47 47 46 45 45 44 44 44 43 43 43 43 42 42 42 41 41 40 40 40 40 40 39 38 37 37 37 37 37 37 37 37 38 39 40 41 41 42 42 41 41 41 42 42 42 43 43 43 43 43 43 42 42 41 41 41 41 41 42 42 42 43 43 43 44 44 44 43 43 43 43 42 41 41 41 41 41
51 51 50 50 50 50 49 49 49 49 49 49 48 48 48 48 48 48 47 47 47 46 46 46 45 45 44 43 43 42 42 42 41 41 41 41 41 41 41 41 41 42 42 43 43 44 44 45 45 45 45 45 45 45 45 46 46 46 47 47 46 46 46 46 46 46 47 47 47 48 48 48 48 48 48 48 47 47 47 46 46 45 45 44 44
51 52 52 52 52 52 52 52 52 52 52 51 51 51 50 50 50 50 50 50 50 49 49 49 49 48 48 48 47 46 46 45 45 45 45 45 45 45 45 45 45 45 45 45 45 45 45 46 46 46 47 47 47 46 46 47 47 48 48 49 49 49 50 50 51 51 52 52 52 53 53 53 53 53 53 52 52 51 51 50 50 50 49 49 48
54 54 53 53 53 53 53 53 54 54 54 54 54 54 53 53 52 52 51 51 51 51 51 51 51 51 51 51 50 50 50 50 49 49 48 48 48 48 48 48 48 48 48 48 48 47 47 47 47 47 48 48 48 48 48 48 49 49 49 50 51 51 51 52 53 54 54 55 55 55 55 56 56 56 56 56 56 55 55 54 54 54 53 53 53
56 56 56 55 55 55 54 54 54 54 54 55 55 56 56 56 55 55 54 54 54 54 53 53 53 53 53 53 53 53 53 53 53 52 52 52 52 51 51 50 50 50 50 50 50 50 50 50 50 50 49 50 50 50 50 50 50 51 51 51 52 52 52 53 53 54 55 56 56 56 56 57 57 57 57 57 57 58 57 57 57 57 57 57 56
54 55 55 55 56 56 56 56 56 56 56 56 56 56 57 57 57 57 57 57 57 57 57 57 56 56 56 55 55 55 56 56 56 56 55 55 55 55 55 54 54 53 53 53 53 53 52 53 53 53 53 53 53 53 53 53 53 53 54 54 54 54 54 54 55 55 56 57 57 57 58 58 58 58 58 58 58 58 59 59 59 58 59 59 59
54 54 54 55 55 55 56 56 56 56 57 57 57 57 57 57 58 58 58 58 59 59 59 59 59 59 59 58 58 58 58 58 58 58 58 58 58 58 58 58 57 57 57 57 56 56 56 55 56 56 56 56 57 57 57 56 56 56 57 57 57 57 57 57 57 57 57 58 58 59 59 60 60 60 59 59 59 59 60 60 60 60 60 60 60
54 55 55 56 56 56 56 56 56 56 57 57 57 58 58 58 58 58 58 58 58 58 59 59 59 60 59 59 59 60 60 60 60 59 59 59 59 60 60 60 60 60 60 60 60 60 60 59 59 59 59 59 59 59 60 60 60 60 60 60 60 60 60 60 60 60 60 60 60 60 61 61 61 62 62 61 61 61 61 61 62 62 62 62 62
55 56 56 57 57 57 58 57 57 57 57 57 57 57 58 58 58 58 58 58 58 58 58 58 58 58 57 58 59 60 60 59 60 60 60 61 61 61 61 61 62 62 62 62 63 63 63 63 63 62 62 62 62 62 62 62 63 63 63 63 63 63 63 63 63 64 63 63 63 63 63 63 63 63 64 64 64 63 63 63 63 64 64 64 64
57 57 57 58 58 58 59 59 59 59 59 59 59 58 58 58 58 59 59 59 59 59 59 58 58 58 57 58 59 59 60 60 60 61 61 62 62 62 62 63 63 63 64 64 64 65 65 65 65 65 66 65 65 65 65 65 65 65 66 66 66 67 67 67 67 67 67 67 67 67 67 67 67 67 67 67 67 67 66 66 66 66 66 66 66
56 57 58 58 59 59 59 59 59 60 60 60 60 60 60 60 60 60 60 60 60 60 60 60 60 59 59 60 60 60 60 61 61 61 62 62 62 62 63 63 64 64 65 65 66 66 66 67 67 68 68 68 69 69 69 69 69 69 69 69 69 70 70 70 71 71 71 71 71 71 71 71 71 71 71 71 71 71 71 70 70 69 69 69 69
56 56 57 58 58 59 60 60 60 60 60 60 60 60 61 61 61 61 61 61 61 61 61 61 61 61 61 62 62 62 62 62 62 62 63 63 63 63 63 64 64 65 66 67 67 68 68 69 69 70 70 71 71 72 72 72 73 73 73 73 73 73 74 74 74 75 75 75 75 75 75 75 75 75 75 75 75 75 75 75 75 74 74 74 73
56 57 57 57 57 58 59 59 60 60 60 60 61 61 62 61 61 61 61 61 61 61 61 62 62 62 62 63 63 63 63 63 63 63 63 63 64 64 64 64 65 66 67 68 68 69 69 70 71 71 72 72 73 74 74 75 76 76 76 77 77 77 78 78 78 79 79 79 79 79 79 79 79 79 79 79 79 79 79 79 79 79 79 78 78
55 56 57 57 57 57 58 58 58 59 59 59 60 60 61 61 61 62 61 61 61 61 61 61 61 62 62 62 63 63 63 63 63 63 63 63 64 64 64 64 65 66 67 67 67 68 69 70 70 71 72 73 74 75 76 76 77 78 79 79 80 80 81 81 81 81 82 82 82 82 82 82 82 82 82 82 83 83 83 83 83 83 83 83 82
54 54 55 56 56 56 56 57 57 57 58 58 58 58 58 58 58 59 59 60 60 61 61 61 62 62 62 62 63 63 63 63 64 64 64 64 64 64 64 64 65 66 66 67 67 68 69 69 70 71 71 72 73 74 75 76 77 78 79 79 80 81 81 81 82 82 82 83 83 83 83 84 84 84 84 85 85 85 86 86 86 86 86 86 86
54 54 53 54 54 55 55 55 55 56 57 57 57 57 57 56 56 55 55 55 56 57 58 59 60 61 61 62 62 63 63 63 64 64 64 64 64 64 64 65 65 66 66 67 68 68 69 69 70 71 72 72 73 74 75 76 77 77 78 79 80 81 82 82 83 83 83 84 84 84 84 85 85 85 86 86 87 87 88 88 88 88 88 88 89
54 54 53 53 53 54 54 54 54 54 54 55 55 56 56 56 55 55 54 54 53 53 53 54 55 56 57 58 59 60 61 61 62 62 62 62 63 63 63 64 64 64 65 66 66 67 67 68 68 69 70 70 71 72 73 74 75 76 77 78 79 80 81 82 83 84 85 85 86 86 87 87 87 88 88 89 89 90 90 90 90 91 91 91 91
53 53 52 52 52 53 53 54 54 54 53 53 53 53 54 54 54 54 54 54 53 53 52 52 52 53 54 54 55 56 57 58 58 58 58 59 59 59 60 60 60 61 61 62 63 63 64 64 65 65 66 66 67 68 69 70 71 72 73 74 75 77 78 80 81 82 83 84 85 86 87 88 89 90 90 91 92 92 92 92 93 93 93 94 94
51 51 51 50 50 51 52 52 53 53 53 52 52 52 52 52 53 53 53 53 53 53 53 52 52 52 52 53 53 54 54 55 55 55 55 55 55 55 56 57 58 58 59 60 61 61 62 62 63 63 64 64 65 65 66 66 67 68 69 70 71 73 74 76 77 79 80 82 83 84 85 87 88 89 90 91 92 93 94 94 95 95 96 96 96
50 50 50 49 48 48 49 50 50 50 51 51 51 52 52 51 52 52 53 53 53 53 53 52 52 52 52 52 53 53 53 53 53 53 54 54 54 55 56 57 58 58 59 60 60 60 61 62 62 62 63 63 63 63 63 64 64 65 67 68 69 71 73 74 76 77 79 80 81 83 84 85 86 87 88 89 90 91 92 93 94 95 95 96 96
49 50 50 49 48 48 48 48 48 48 49 49 50 50 51 51 51 51 52 52 53 53 53 53 52 52 52 52 52 53 53 53 54 54 55 56 56 57 58 58 59 59 60 60 60 61 61 61 61 61 61 61 61 61 62 62 63 65 67 69 71 73 74 75 77 78 79 80 81 82 83 85 85 86 87 87 88 89 90 91 92 93 94 94 95
Wind_Direction
213 214 214 215 216 219 219 216 214 214 216 220 222 223 223 222 222 224 225 225 228 229 232 234 233 230 229 229 228 228 230 233 235 237 236 234 234 237 239 238 236 234 232 229 227 227 227 227 233 238 241 243 244 245 248 255 261 269 277 282 285 293 303 311 317 322 326 325 329 336 334 329 336 341 339 342 340 342 358 7 3 6 16 26 30
214 214 215 215 217 218 218 217 215 213 215 219 222 224 225 224 222 222 223 225 227 228 229 232 232 230 230 232 232 231 233 234 236 238 240 240 239 240 241 242 241 240 241 240 239 239 238 238 240 243 246 249 253 257 262 270 277 282 288 293 296 299 302 303 306 312 318 317 316 324 323 316 326 341 343 347 345 349 13 29 10 4 3 3 7
217 216 216 217 219 220 220 218 216 214 214 217 221 223 226 226 224 222 222 224 227 227 227 229 231 230 231 234 235 235 236 238 238 240 241 242 242 242 244 245 246 246 245 246 246 247 247 249 252 254 256 259 263 265 269 274 280 286 293 299 303 301 300 302 302 306 314 320 311 314 320 318 325 347 343 338 342 1 30 43 358 351 343 338 335
222 221 221 222 222 222 223 221 218 216 216 217 219 221 223 225 226 225 223 223 225 226 226 227 228 229 230 233 235 236 238 239 239 240 241 241 241 242 244 246 249 251 251 250 250 252 253 255 259 262 264 267 269 270 272 274 277 281 284 287 288 288 289 293 297 301 307 315 312 303 307 312 319 330 330 327 335 352 353 330 323 325 321 321 322
229 227 226 227 227 226 227 227 223 220 219 220 221 221 222 223 226 226 225 224 224 224 224 226 226 227 228 231 234 236 237 238 238 239 239 240 241 243 245 247 249 254 258 258 257 257 259 261 264 266 267 268 270 272 273 274 273 272 273 274 276 278 280 282 285 288 293 301 303 296 294 300 307 317 322 321 324 328 321 311 310 312 310 311 315
233 232 231 231 230 229 228 229 229 226 223 223 224 224 224 224 226 227 226 225 224 223 223 224 225 225 225 228 231 235 237 237 238 240 241 241 242 244 247 249 251 255 260 263 264 264 265 266 268 269 269 268 269 271 273 274 274 273 271 272 273 276 278 279 280 281 282 287 291 292 290 291 296 305 312 313 314 316 310 303 302 306 306 307 311
232 233 234 234 233 233 231 231 232 233 230 228 228 228 228 228 229 229 228 228 226 225 224 223 224 224 224 227 229 233 237 238 239 241 242 242 243 244 246 250 253 257 260 263 265 266 268 269 270 270 270 269 267 269 271 273 276 278 279 278 279 280 282 282 282 283 284 285 288 291 290 286 286 289 290 293 300 305 305 301 300 303 304 304 307
232 232 234 234 234 233 232 231 233 235 235 232 230 230 229 230 231 232 232 231 230 229 228 227 226 224 225 227 230 232 235 237 238 241 243 244 245 245 246 247 250 254 258 260 262 263 265 266 268 268 267 267 267 268 269 271 272 275 277 278 279 281 282 282 283 285 287 289 290 292 291 288 287 286 284 283 288 293 297 299 301 304 305 302 301
233 233 234 235 235 235 234 233 233 235 237 236 234 232 230 229 229 232 234 235 235 235 234 233 232 229 228 228 230 232 234 236 237 240 242 243 244 245 247 248 249 251 254 257 258 259 260 261 263 265 265 266 267 268 269 271 272 274 277 280 282 283 283 283 284 286 287 289 292 292 292 292 292 292 291 289 290 292 294 297 299 301 303 300 296
233 234 235 237 238 238 236 234 234 236 237 238 237 236 235 233 231 230 232 236 239 240 241 241 239 237 235 233 233 234 235 237 238 239 242 243 242 242 243 244 246 248 251 253 255 256 257 258 260 262 264 266 268 271 273 275 277 280 283 286 287 288 288 287 287 288 288 289 291 292 293 294 296 296 296 296 298 297 296 296 295 295 295 293 292
235 235 236 238 240 241 240 239 238 237 239 241 241 240 239 239 237 234 233 235 237 240 242 244 244 244 242 240 238 238 238 239 239 240 242 244 244 244 244 244 245 247 250 253 256 258 260 262 263 265 267 269 272 274 277 280 283 286 288 288 287 287 287 287 287 286 286 288 290 291 292 293 296 297 297 299 301 298 295 293 291 290 288 284 285
240 239 237 237 240 242 244 244 242 240 241 244 246 245 243 241 240 237 235 234 235 236 238 240 241 242 242 242 241 240 241 242 242 242 242 244 246 247 248 248 248 248 250 253 256 260 264 268 270 272 274 275 277 278 280 282 284 284 284 282 280 280 281 282 283 282 282 283 284 285 286 289 293 296 296 296 295 292 289 286 284 283 282 280 280
243 244 242 240 241 243 244 247 248 247 246 246 247 247 247 245 242 238 235 234 234 235 235 235 236 236 237 238 239 239 240 242 243 243 243 244 245 247 249 251 252 253 253 254 256 259 263 267 272 274 275 276 277 279 281 283 282 281 280 279 279 278 278 279 281 284 286 286 286 287 289 291 293 294 296 297 295 292 289 286 282 278 276 276 278
243 246 245 243 243 243 245 248 250 251 251 250 247 245 246 246 244 240 237 235 235 235 235 235 235 235 235 235 236 236 238 240 242 243 244 244 245 247 249 252 254 256 258 259 259 259 260 262 264 267 270 272 274 278 281 283 284 285 285 285 284 284 283 282 283 285 288 289 290 290 292 295 295 294 296 297 297 296 295 293 291 287 282 282 282
248 250 250 246 244 243 245 248 250 250 251 251 247 244 244 246 244 241 237 235 234 234 236 237 236 237 237 238 239 238 238 240 241 242 244 245 246 248 250 252 255 258 261 263 264 264 263 262 262 264 266 269 273 277 280 283 285 286 286 286 285 285 284 282 281 282 283 285 286 287 289 292 293 294 294 295 295 295 294 295 293 291 290 291 289
251 249 249 249 246 244 245 247 250 249 247 246 244 241 241 243 244 241 238 237 234 233 235 236 237 238 239 240 242 242 241 241 241 242 243 244 245 246 249 251 254 257 260 263 265 266 268 268 267 268 271 273 274 275 277 278 279 280 281 282 283 284 283 282 282 283 283 283 284 285 286 287 289 291 291 291 291 291 291 292 291 288 289 290 289
250 246 247 249 248 246 245 245 246 247 246 245 244 240 239 241 243 241 239 239 237 235 235 236 236 237 237 238 240 241 242 242 242 243 243 243 244 246 248 250 253 255 258 260 263 266 269 271 272 274 275 276 276 275 273 273 272 273 274 276 278 280 281 282 284 285 284 284 283 283 284 284 285 287 287 287 287 288 289 290 289 288 289 289 287
251 248 247 249 247 245 244 242 241 243 245 246 244 242 241 243 244 241 238 239 240 238 238 237 236 236 236 237 238 240 240 241 243 244 245 245 245 246 247 249 251 253 256 259 262 265 268 270 272 274 275 276 275 274 273 273 272 271 271 271 272 274 276 279 282 283 284 284 284 283 282 282 281 282 282 283 284 285 286 287 287 288 289 289 288
251 250 250 249 248 248 246 243 240 241 244 244 244 244 244 244 243 240 238 240 242 242 240 240 239 238 237 237 238 240 241 241 242 243 244 246 246 246 246 247 248 251 253 257 260 263 265 267 269 270 270 270 270 271 271 271 271 270 270 269 269 270 271 274 276 277 279 282 282 282 281 280 279 278 278 280 281 283 284 284 285 286 287 287 286
250 251 252 251 251 252 250 246 246 248 250 250 249 246 247 250 249 245 242 243 244 243 241 240 241 240 239 238 238 241 244 244 243 243 243 244 247 248 248 247 247 249 251 253 256 259 261 262 264 265 266 266 266 267 268 268 269 269 270 270 269 269 270 272 273 273 275 277 279 280 280 279 278 278 278 279 281 282 284 284 285 285 285 285 284
247 248 250 251 252 251 250 249 253 256 257 257 255 248 246 252 257 259 258 253 248 244 239 238 240 241 241 240 240 241 244 245 245 245 244 243 245 249 250 250 249 249 250 252 253 255 258 259 261 262 264 265 265 266 267 267 268 269 270 271 272 272 272 272 273 274 274 275 276 277 278 278 278 279 280 281 282 283 284 284 284 285 286 285 284
246 245 246 249 251 252 251 251 254 255 255 257 257 253 249 249 251 256 258 258 258 250 238 234 239 242 243 245 246 246 245 245 244 245 245 244 244 246 248 250 249 249 249 250 251 252 255 258 260 261 263 264 265 266 266 267 267 268 269 270 271 272 272 272 273 274 275 275 276 276 276 277 278 279 281 282 283 284 284 284 283 283 285 286 286
246 245 244 245 248 249 249 250 251 251 251 252 255 256 255 254 255 259 260 258 258 257 247 239 242 245 246 248 249 247 245 244 245 246 247 248 248 248 249 250 250 250 249 250 251 253 255 257 259 260 262 263 263 264 265 266 266 266 267 268 269 270 271 272 272 273 273 274 274 275 275 276 277 278 279 281 282 283 284 284 284 284 285 286 286
246 246 245 244 245 246 245 246 247 248 247 247 250 255 256 256 256 259 261 259 255 253 252 252 252 253 252 251 249 245 242 242 244 245 248 250 251 252 252 252 252 252 252 251 252 253 255 257 259 260 262 263 263 264 264 264 264 265 265 265 267 268 270 271 271 271 271 272 272 273 274 274 275 276 277 278 279 281 282 283 284 285 285 286 286
246 246 246 246 246 246 245 244 244 245 245 244 246 249 252 252 250 249 251 253 252 250 251 252 254 255 254 254 254 252 249 247 245 244 250 256 257 256 256 255 254 254 254 253 253 254 256 258 260 263 265 265 266 267 266 265 264 264 263 264 265 266 268 269 270 270 270 271 272 273 273 273 274 275 275 276 277 278 279 280 282 283 284 284 284
248 248 247 247 248 249 249 247 245 244 244 244 244 245 246 247 246 245 246 249 250 250 250 250 252 253 254 255 257 257 255 254 253 250 251 257 261 261 262 262 259 255 252 251 251 252 252 254 258 261 262 263 265 266 267 266 264 263 264 265 266 267 268 269 269 270 270 271 272 274 274 274 274 275 275 275 276 276 277 278 279 280 281 282 283
249 250 250 250 250 250 250 250 248 246 245 245 245 245 246 247 247 247 247 249 250 250 250 249 250 251 253 255 256 257 257 258 258 256 253 256 260 263 264 266 267 264 259 255 252 250 249 250 252 254 254 256 259 262 264 264 262 261 262 264 266 268 270 270 270 269 269 270 271 273 274 275 276 276 277 277 277 277 277 277 277 278 279 280 281
250 251 252 252 252 252 252 252 251 249 247 246 246 246 247 249 250 251 251 251 252 252 251 251 250 250 250 251 251 253 255 257 258 259 258 258 260 260 261 262 264 266 266 264 262 259 256 255 254 253 254 256 258 261 263 265 263 260 260 262 264 266 268 269 269 268 268 268 269 271 273 274 275 276 277 277 277 277 277 277 278 277 277 278 279
249 250 251 251 252 252 252 252 252 251 250 249 248 248 248 249 251 254 255 255 255 255 255 254 253 253 254 254 253 253 254 255 257 259 259 259 259 259 258 259 260 260 261 262 263 263 263 262 262 261 261 261 262 263 264 266 266 265 265 264 265 266 267 268 269 268 267 267 268 269 271 272 273 274 274 274 275 276 276 277 278 278 277 277 277
248 248 247 248 249 249 250 251 252 252 252 252 251 251 251 251 251 253 255 256 257 257 257 257 256 256 257 258 258 258 257 256 257 258 259 259 258 257 257 257 258 259 259 260 261 262 263 263 264 264 264 264 264 264 265 266 267 267 267 267 267 267 268 268 268 268 268 268 268 269 270 271 272 272 272 272 272 272 273 275 276 277 277 277 276
249 247 246 245 245 245 246 248 249 251 252 253 253 253 253 254 253 253 254 254 255 256 257 257 258 258 258 258 259 260 260 259 257 257 257 258 257 257 256 256 256 257 257 258 259 259 260 261 261 261 262 262 263 263 264 265 265 266 267 267 267 267 267 267 267 267 268 268 269 269 270 271 271 272 272 272 272 272 272 273 273 274 274 275 275
249 248 247 246 245 244 244 245 246 248 250 252 253 253 254 254 255 255 254 254 254 254 255 256 256 257 257 257 257 258 259 259 259 258 257 257 257 257 257 256 256 256 256 256 257 258 259 259 260 260 261 261 262 262 263 263 264 265 266 266 266 266 266 266 266 266 267 267 268 268 269 270 270 271 271 271 272 272 272 272 272 272 272 273 273
251 251 250 249 248 247 247 246 247 247 248 249 250 252 252 252 253 254 254 254 254 254 254 254 254 255 256 257 257 257 257 257 258 258 258 257 257 257 257 257 257 257 257 257 257 258 258 259 260 261 261 262 263 263 263 264 264 264 265 266 266 266 266 266 267 267 267 267 267 268 268 269 269 269 270 270 271 271 271 271 271 271 271 271 271
252 252 252 251 251 250 249 249 248 248 248 248 249 249 250 250 251 251 252 253 254 254 254 254 254 254 254 255 257 258 258 258 258 258 258 258 258 258 258 258 259 259 260 260 260 261 261 261 261 261 261 262 263 263 264 264 265 265 266 266 266 266 266 266 267 267 268 268 268 268 268 269 269 269 270 270 270 271 271 271 271 271 271 271 271
252 252 253 253 252 252 251 250 250 249 248 248 248 248 249 249 250 250 251 251 252 254 255 255 255 255 255 255 255 257 258 259 259 260 260 260 261 261 260 260 260 260 261 261 262 263 263 264 264 264 263 263 263 263 264 264 265 265 266 266 266 267 267 267 267 268 268 269 269 269 269 269 269 269 270 270 270 271 271 271 271 271 271 271 271
251 252 252 253 253 253 252 252 252 251 250 249 249 249 249 249 250 250 251 251 251 252 253 253 254 255 256 256 256 257 258 258 260 261 262 263 263 264 264 264 265 264 264 264 263 263 264 264 265 265 266 266 265 265 265 264 264 265 265 265 266 266 267 267 267 268 268 269 269 270 270 270 270 270 270 270 270 270 271 271 271 271 271 272 272
252 252 253 253 253 253 253 253 253 253 253 252 252 252 251 251 251 251 252 252 252 252 252 252 252 253 253 254 256 257 258 258 259 260 261 262 263 264 265 266 267 267 268 268 267 267 266 266 265 265 266 266 266 267 267 266 266 266 266 266 266 266 266 266 267 267 267 267 268 269 269 269 270 270 270 269 269 269 270 270 271 271 271 271 271
251 252 253 254 254 254 254 254 254 254 254 254 254 255 255 255 255 254 254 254 254 254 254 254 254 253 253 253 254 256 257 257 258 259 259 260 261 262 264 265 266 266 267 268 268 269 269 269 268 267 267 266 266 266 267 267 267 266 266 266 266 266 267 267 267 267 267 267 267 267 268 268 269 269 269 269 269 269 269 269 269 270 270 270 270
250 251 252 253 254 255 256 256 255 255 255 255 255 256 256 257 257 257 257 257 257 257 256 256 256 256 255 255 256 256 256 257 258 259 259 260 260 261 262 263 263 264 265 266 267 267 268 268 269 269 268 268 267 267 266 266 266 266 266 266 266 266 266 266 266 267 267 267 267 267 267 268 268 268 269 269 269 269 269 268 268 268 268 269 269
251 251 252 253 253 254 255 256 257 257 257 256 256 256 257 257 258 259 259 259 260 260 260 259 259 259 259 258 259 259 259 259 259 259 260 260 260 261 262 262 263 264 264 265 265 266 266 267 267 268 268 268 268 268 267 267 266 266 266 266 266 266 266 266 266 266 266 266 267 267 267 268 268 268 268 269 269 269 269 268 268 268 268 268 268
252 252 253 253 254 254 255 256 256 257 257 258 258 258 258 258 258 258 259 260 261 261 262 262 262 262 262 262 261 261 262 262 261 261 261 261 260 261 261 262 262 263 264 264 265 265 265 266 266 267 267 268 268 268 268 268 268 267 267 266 266 266 266 266 266 266 266 266 266 266 267 267 267 267 268 268 269 269 269 269 268 268 268 268 268
253 253 254 254 255 255 255 256 256 256 257 258 258 259 259 259 258 258 259 259 260 261 262 262 263 263 263 264 264 264 264 264 264 264 264 263 263 262 262 262 262 263 263 264 264 264 265 265 266 266 267 267 268 268 269 269 269 269 268 268 267 267 267 267 266 266 267 267 267 267 267 267 267 267 267 267 267 268 268 268 268 268 268 268 268
252 253 254 254 255 255 256 256 257 257 257 257 258 258 259 259 259 259 260 260 260 261 261 261 262 262 263 263 264 264 264 264 264 265 265 265 265 265 264 264 264 264 264 264 264 265 265 266 266 267 267 267 268 268 269 269 269 270 270 269 269 269 269 268 268 268 267 267 267 267 267 267 267 267 267 267 267 267 267 267 267 268 268 268 268
251 252 253 254 254 255 255 256 256 257 257 258 258 258 258 259 259 259 260 260 261 261 261 261 262 262 262 263 263 264 264 264 264 264 265 265 265 266 266 266 266 266 266 266 266 266 266 267 267 268 268 268 268 269 269 269 269 270 270 270 270 270 270 270 269 269 269 269 268 268 268 268 267 267 267 267 267 267 267 267 267 267 267 267 267
250 251 253 253 254 254 254 255 255 256 256 256 257 258 258 258 259 259 259 260 260 260 261 261 262 262 263 263 263 263 264 264 264 265 265 265 266 266 266 267 267 267 268 268 268 268 268 268 269 269 269 269 270 270 270 270 270 270 270 270 270 270 270 270 270 270 270 270 269 269 269 269 268 268 268 268 268 267 267 267 267 267 267 267 267
250 251 252 253 254 254 254 255 255 255 255 255 256 256 257 257 258 258 259 259 259 260 260 260 261 261 262 262 263 263 264 264 264 265 265 265 266 266 267 267 268 269 269 270 270 270 270 270 270 270 271 271 271 271 271 271 272 271 271 271 271 271 271 271 270 270 270 270 270 269 269 269 269 269 268 268 268 268 268 267 267 267 267 267 267
252 252 253 253 254 254 254 254 254 254 255 255 256 256 256 256 257 257 258 259 259 260 260 260 261 261 261 262 262 263 263 263 264 264 265 265 266 266 267 267 268 269 269 270 271 271 271 272 272 272 272 272 273 273 273 273 273 273 273 273 273 273 272 272 271 271 271 270 270 270 269 269 269 268 268 268 268 268 268 268 268 268 268 268 267
255 254 254 254 254 254 254 254 254 254 255 255 256 256 257 257 257 257 258 258 259 260 260 261 261 261 262 262 262 262 263 263 263 264 264 265 265 266 266 267 268 269 270 270 271 272 273 273 274 274 274 275 275 275 275 275 275 276 276 275 275 275 275 274 274 273 272 272 271 271 270 270 269 269 268 268 268 268 268 267 267 267 267 267 267
257 256 255 254 254 254 255 255 255 255 255 255 255 256 257 258 258 258 258 259 259 259 260 260 261 261 261 262 262 262 262 262 263 263 263 264 265 265 266 267 268 269 270 271 272 273 273 274 275 275 276 276 276 277 277 277 277 277 278 278 278 278 277 277 276 276 275 275 274 273 273 272 271 271 270 269 269 268 268 268 267 267 267 267 267
257 257 257 255 254 254 254 255 255 255 255 255 255 256 256 257 258 258 258 259 259 259 260 260 260 260 261 261 261 261 261 261 262 262 263 263 265 266 267 268 269 270 271 272 272 273 274 274 275 275 276 276 277 277 278 278 279 280 280 280 281 281 281 280 280 279 279 278 277 277 276 275 274 274 273 272 272 271 270 269 269 268 267 267 267
255 257 257 257 256 255 254 255 255 256 256 256 256 256 256 256 257 258 258 259 259 259 259 260 260 260 260 260 260 260 260 260 261 262 263 264 266 267 269 270 270 271 271 272 272 273 273 274 274 275 275 276 277 278 279 280 281 282 283 284 284 283 283 282 282 281 280 280 279 278 277 276 276 275 275 274 274 273 273 272 271 271 270 269 268
Height
5935 5936 5938 5939 5941 5942 5943 5944 5945 5946 5947 5948 5950 5951 5952 5953 5954 5956 5956 5957 5958 5958 5959 5960 5961 5961 5962 5963 5963 5964 5965 5966 5967 5967 5968 5969 5970 5970 5971 5972 5972 5972 5972 5972 5972 5972 5972 5973 5973 5973 5974 5974 5975 5975 5975 5976 5976 5977 5977 5977 5977 5977 5977 5977 5977 5977 5977 5977 5977 5977 5977 5977 5977 5977 5976 5976 5976 5975 5975 5975 5975 5974 5974 5973 5973
5934 5935 5936 5937 5938 5939 5940 5942 5943 5945 5946 5947 5948 5949 5950 5951 5953 5954 5955 5956 5956 5957 5958 5958 5959 5960 5960 5961 5962 5963 5963 5964 5965 5966 5967 5968 5969 5970 5970 5971 5971 5971 5971 5972 5972 5972 5972 5972 5972 5972 5973 5973 5974 5974 5975 5975 5975 5976 5976 5976 5976 5976 5976 5976 5976 5976 5976 5976 5976 5976 5976 5976 5975 5975 5975 5975 5975 5974 5974 5974 5974 5974 5973 5973 5972
5933 5934 5935 5935 5936 5937 5939 5940 5942 5943 5944 5945 5946 5947 5948 5950 5951 5952 5953 5954 5955 5955 5956 5957 5957 5958 5958 5959 5960 5961 5962 5963 5964 5965 5966 5967 5968 5968 5969 5969 5970 5970 5970 5971 5971 5971 5971 5971 5971 5972 5972 5973 5973 5973 5974 5974 5974 5975 5975 5975 5975 5975 5975 5975 5975 5975 5975 5975 5975 5975 5975 5975 5974 5974 5974 5974 5974 5974 5974 5974 5973 5973 5973 5972 5972
5932 5933 5934 5934 5935 5936 5937 5939 5940 5941 5942 5943 5943 5945 5946 5947 5949 5950 5951 5952 5953 5954 5954 5955 5955 5956 5957 5957 5958 5959 5960 5961 5962 5963 5964 5965 5966 5967 5967 5968 5969 5969 5969 5970 5970 5971 5971 5971 5971 5971 5972 5972 5972 5972 5973 5973 5973 5973 5974 5974 5974 5974 5974 5974 5974 5974 5974 5974 5974 5974 5974 5974 5974 5974 5974 5974 5974 5973 5973 5973 5973 5973 5972 5972 5971
5930 5931 5932 5932 5934 5935 5936 5937 5939 5940 5940 5941 5941 5942 5944 5945 5946 5947 5949 5950 5951 5951 5952 5952 5953 5954 5955 5956 5956 5957 5958 5959 5960 5961 5962 5963 5964 5965 5966 5967 5967 5968 5969 5969 5970 5970 5970 5970 5970 5970 5971 5971 5971 5971 5971 5972 5972 5972 5972 5972 5972 5973 5973 5973 5973 5973 5973 5973 5973 5974 5974 5973 5973 5973 5973 5973 5973 5973 5973 5973 5972 5972 5971 5971 5971
5928 5929 5930 5930 5931 5933 5934 5935 5936 5937 5938 5939 5940 5941 5942 5944 5944 5945 5947 5948 5949 5949 5950 5950 5951 5951 5953 5954 5955 5955 5956 5957 5958 5959 5960 5961 5962 5963 5964 5965 5966 5967 5967 5968 5969 5969 5969 5969 5969 5970 5970 5970 5970 5970 5970 5970 5971 5971 5971 5971 5971 5971 5972 5972 5972 5972 5972 5972 5972 5972 5973 5973 5972 5972 5972 5972 5972 5972 5972 5972 5971 5971 5970 5970 5969
5925 5926 5927 5928 5930 5931 5932 5933 5934 5935 5936 5937 5939 5940 5941 5942 5943 5944 5945 5946 5947 5947 5948 5948 5949 5950 5951 5952 5953 5954 5955 5955 5956 5957 5957 5958 5959 5961 5962 5963 5964 5965 5966 5967 5967 5968 5968 5968 5968 5968 5968 5969 5969 5969 5969 5969 5970 5970 5970 5971 5971 5971 5971 5971 5971 5971 5971 5971 5971 5972 5972 5971 5971 5971 5971 5971 5971 5971 5970 5970 5970 5969 5969 5968 5968
5922 5924 5925 5926 5927 5928 5929 5930 5931 5932 5933 5934 5936 5937 5938 5940 5941 5942 5943 5944 5945 5946 5946 5946 5947 5948 5949 5950 5951 5952 5953 5954 5954 5955 5956 5956 5957 5959 5960 5961 5962 5963 5964 5965 5965 5966 5966 5966 5966 5967 5967 5967 5967 5967 5968 5968 5968 5969 5969 5970 5970 5970 5970 5970 5970 5970 5970 5970 5970 5970 5970 5970 5970 5970 5970 5970 5970 5969 5969 5968 5968 5968 5968 5967 5966
5919 5921 5922 5923 5925 5926 5927 5927 5928 5928 5930 5931 5932 5933 5934 5935 5937 5938 5940 5942 5943 5944 5945 5945 5946 5947 5948 5949 5950 5950 5951 5952 5952 5953 5954 5955 5956 5957 5958 5959 5960 5961 5962 5962 5962 5963 5964 5964 5964 5965 5965 5965 5965 5966 5966 5967 5967 5968 5968 5969 5969 5970 5970 5970 5970 5970 5969 5969 5969 5969 5969 5969 5969 5969 5969 5969 5969 5969 5968 5968 5967 5967 5966 5965 5964
5917 5918 5919 5921 5922 5923 5923 5924 5925 5926 5926 5928 5929 5930 5931 5932 5934 5935 5937 5939 5941 5943 5944 5945 5945 5946 5947 5948 5948 5949 5949 5950 5951 5952 5952 5953 5954 5955 5956 5957 5958 5959 5959 5959 5960 5960 5961 5962 5962 5962 5963 5963 5964 5965 5965 5966 5966 5967 5968 5968 5968 5968 5969 5968 5969 5968 5968 5968 5968 5968 5967 5967 5967 5967 5967 5967 5968 5968 5967 5967 5966 5966 5965 5964 5962
5914 5915 5916 5917 5918 5919 5920 5922 5923 5923 5924 5925 5926 5927 5929 5931 5932 5934 5935 5936 5938 5940 5942 5944 5944 5945 5946 5946 5947 5947 5947 5948 5949 5950 5951 5952 5952 5953 5954 5955 5955 5956 5957 5957 5958 5958 5959 5960 5960 5960 5961 5961 5962 5963 5964 5965 5966 5966 5967 5967 5967 5967 5966 5966 5966 5967 5967 5967 5966 5966 5966 5965 5965 5965 5966 5966 5966 5966 5965 5965 5965 5964 5964 5963 5962
5911 5911 5912 5913 5914 5916 5917 5919 5920 5920 5921 5923 5924 5924 5926 5929 5930 5931 5932 5933 5935 5936 5938 5940 5941 5942 5943 5944 5944 5945 5945 5946 5947 5948 5949 5950 5951 5951 5952 5953 5953 5954 5954 5955 5956 5957 5957 5958 5959 5959 5959 5960 5960 5961 5962 5963 5964 5965 5965 5965 5965 5964 5964 5963 5963 5963 5964 5964 5964 5963 5963 5963 5963 5962 5963 5963 5963 5963 5963 5963 5963 5963 5962 5961 5961
5906 5907 5908 5910 5911 5912 5913 5915 5917 5918 5919 5920 5921 5922 5923 5925 5927 5928 5928 5929 5931 5932 5933 5934 5936 5938 5939 5939 5940 5941 5942 5943 5944 5946 5947 5947 5948 5949 5950 5951 5951 5952 5952 5953 5954 5955 5956 5956 5957 5957 5958 5958 5959 5960 5961 5961 5962 5962 5962 5962 5962 5962 5962 5961 5961 5961 5961 5962 5962 5961 5961 5961 5961 5960 5960 5961 5961 5961 5961 5960 5960 5960 5960 5959 5959
5903 5903 5904 5905 5907 5908 5910 5911 5913 5914 5915 5916 5917 5919 5920 5921 5922 5924 5925 5926 5927 5928 5929 5930 5932 5933 5934 5935 5935 5936 5938 5939 5941 5942 5944 5945 5946 5947 5948 5948 5949 5950 5951 5951 5952 5952 5953 5954 5954 5954 5955 5956 5957 5958 5959 5959 5959 5959 5959 5960 5959 5959 5959 5959 5959 5959 5960 5960 5960 5959 5959 5958 5959 5959 5958 5958 5958 5958 5958 5959 5958 5958 5958 5958 5957
5900 5901 5902 5902 5903 5905 5906 5908 5909 5911 5912 5911 5912 5914 5915 5916 5917 5919 5920 5921 5922 5924 5926 5927 5929 5930 5931 5932 5933 5933 5935 5936 5937 5939 5940 5942 5943 5944 5945 5946 5947 5948 5948 5949 5950 5950 5951 5951 5951 5951 5952 5953 5954 5956 5956 5956 5957 5957 5957 5957 5956 5956 5956 5956 5956 5957 5957 5957 5957 5957 5956 5956 5956 5956 5955 5955 5955 5955 5955 5956 5956 5955 5956 5956 5956
5898 5899 5899 5899 5900 5901 5903 5904 5905 5907 5908 5908 5908 5909 5910 5911 5911 5913 5915 5916 5917 5920 5922 5924 5925 5927 5928 5929 5930 5931 5932 5933 5934 5935 5936 5938 5939 5941 5942 5943 5944 5944 5945 5946 5947 5947 5948 5949 5949 5949 5950 5951 5952 5953 5953 5953 5953 5953 5953 5953 5953 5953 5952 5952 5953 5954 5954 5955 5955 5954 5954 5953 5953 5952 5952 5951 5951 5951 5951 5952 5951 5951 5953 5953 5953
5895 5896 5896 5896 5898 5898 5899 5900 5901 5902 5903 5904 5904 5905 5906 5907 5907 5909 5910 5911 5913 5916 5918 5920 5922 5923 5924 5925 5926 5927 5928 5930 5931 5932 5933 5934 5935 5937 5938 5939 5940 5941 5942 5942 5943 5944 5945 5946 5946 5947 5947 5948 5948 5949 5949 5950 5950 5950 5950 5950 5950 5950 5949 5949 5950 5950 5950 5951 5951 5951 5951 5950 5950 5949 5948 5948 5947 5947 5948 5948 5947 5947 5949 5949 5949
5892 5893 5893 5894 5895 5896 5896 5897 5897 5898 5899 5900 5901 5901 5902 5903 5903 5904 5906 5908 5910 5912 5915 5916 5917 5918 5919 5920 5921 5922 5923 5925 5927 5929 5930 5931 5932 5933 5934 5936 5937 5938 5938 5939 5940 5941 5942 5942 5943 5944 5944 5944 5945 5945 5946 5946 5946 5947 5947 5947 5947 5946 5946 5946 5946 5947 5946 5947 5947 5947 5947 5947 5946 5946 5945 5944 5943 5943 5944 5944 5944 5943 5945 5945 5945
5888 5889 5890 5891 5892 5892 5893 5894 5894 5895 5896 5896 5897 5898 5899 5899 5900 5901 5903 5904 5906 5908 5911 5912 5912 5913 5915 5916 5917 5918 5918 5920 5922 5924 5926 5927 5928 5929 5930 5931 5932 5934 5935 5936 5936 5937 5938 5939 5939 5940 5940 5940 5941 5941 5941 5942 5942 5943 5943 5943 5943 5943 5942 5943 5943 5943 5943 5943 5943 5943 5943 5943 5942 5942 5941 5940 5940 5940 5940 5941 5940 5940 5941 5941 5941
5885 5886 5887 5888 5888 5889 5890 5891 5892 5893 5893 5894 5894 5895 5895 5896 5898 5899 5900 5901 5902 5904 5906 5907 5907 5909 5911 5912 5912 5913 5914 5915 5917 5919 5921 5923 5925 5926 5926 5927 5928 5929 5931 5932 5932 5933 5934 5934 5935 5935 5936 5936 5937 5937 5937 5938 5938 5938 5939 5939 5940 5940 5939 5939 5939 5939 5940 5940 5939 5939 5939 5939 5938 5938 5938 5937 5936 5936 5936 5937 5937 5936 5937 5937 5937
5881 5882 5883 5884 5885 5886 5887 5888 5890 5891 5891 5891 5892 5893 5894 5894 5896 5896 5896 5897 5899 5899 5901 5902 5902 5904 5905 5906 5907 5909 5910 5912 5913 5915 5916 5918 5920 5921 5922 5923 5924 5925 5926 5927 5928 5929 5929 5930 5931 5931 5932 5932 5933 5933 5933 5934 5934 5934 5934 5934 5935 5935 5936 5935 5935 5935 5936 5936 5936 5935 5935 5934 5934 5933 5933 5933 5932 5932 5932 5932 5932 5932 5932 5933 5933
5878 5879 5880 5881 5881 5882 5884 5885 5887 5888 5889 5889 5890 5891 5892 5892 5893 5893 5894 5896 5897 5896 5896 5898 5899 5900 5901 5902 5903 5905 5906 5907 5909 5911 5912 5914 5915 5916 5917 5919 5920 5921 5922 5922 5923 5924 5925 5926 5927 5927 5928 5928 5928 5929 5929 5930 5930 5930 5930 5930 5930 5930 5931 5931 5931 5931 5931 5931 5931 5931 5931 5930 5930 5930 5929 5929 5928 5928 5927 5927 5928 5928 5928 5928 5928
5874 5875 5876 5877 5878 5879 5880 5882 5883 5884 5886 5886 5887 5888 5889 5889 5890 5890 5891 5893 5894 5894 5894 5895 5896 5897 5899 5899 5900 5901 5902 5904 5906 5907 5908 5909 5910 5911 5913 5914 5915 5916 5917 5918 5919 5920 5920 5921 5922 5923 5924 5924 5924 5924 5925 5925 5926 5926 5925 5925 5925 5925 5926 5926 5926 5926 5927 5927 5927 5927 5926 5926 5926 5926 5925 5925 5924 5923 5923 5922 5922 5923 5923 5923 5923
5870 5872 5873 5874 5875 5876 5877 5878 5880 5881 5882 5883 5884 5885 5886 5887 5888 5888 5888 5889 5891 5892 5892 5893 5893 5894 5896 5897 5897 5898 5899 5901 5902 5903 5905 5906 5906 5907 5908 5909 5909 5910 5911 5913 5914 5915 5916 5917 5918 5919 5919 5919 5919 5919 5920 5920 5921 5921 5921 5921 5921 5921 5921 5921 5921 5922 5922 5922 5922 5922 5922 5921 5921 5921 5921 5920 5919 5919 5919 5918 5918 5917 5918 5918 5918
5866 5868 5869 5870 5871 5872 5873 5875 5876 5877 5878 5879 5880 5881 5883 5884 5885 5885 5886 5886 5888 5889 5890 5891 5891 5892 5894 5895 5895 5895 5896 5898 5899 5900 5901 5902 5902 5903 5903 5903 5904 5905 5905 5907 5908 5910 5911 5912 5913 5914 5914 5915 5915 5914 5915 5915 5915 5915 5916 5916 5916 5916 5916 5917 5917 5917 5917 5917 5917 5917 5917 5917 5917 5917 5916 5916 5915 5914 5914 5914 5913 5913 5912 5913 5913
5861 5863 5864 5866 5867 5868 5869 5871 5872 5874 5874 5875 5876 5877 5878 5879 5880 5881 5882 5883 5884 5885 5887 5888 5889 5889 5890 5891 5892 5893 5894 5895 5896 5897 5898 5898 5898 5898 5899 5899 5899 5899 5900 5902 5903 5905 5906 5907 5908 5909 5909 5909 5910 5910 5909 5909 5909 5910 5910 5911 5911 5911 5911 5911 5912 5912 5912 5912 5912 5912 5912 5912 5912 5912 5911 5911 5910 5909 5909 5909 5908 5908 5907 5908 5908
5857 5858 5859 5861 5862 5863 5865 5866 5868 5869 5870 5871 5872 5873 5873 5874 5876 5877 5878 5879 5880 5881 5882 5884 5885 5886 5887 5888 5889 5890 5890 5891 5892 5893 5894 5894 5893 5894 5895 5895 5895 5896 5896 5897 5898 5900 5900 5901 5902 5903 5904 5904 5904 5905 5904 5904 5904 5904 5905 5905 5905 5905 5905 5906 5906 5906 5906 5906 5906 5906 5906 5907 5907 5907 5906 5906 5905 5904 5904 5904 5903 5903 5902 5902 5903
5852 5853 5854 5855 5857 5858 5859 5861 5862 5864 5866 5867 5868 5868 5869 5870 5871 5872 5873 5874 5876 5877 5878 5879 5881 5882 5883 5884 5885 5886 5887 5887 5888 5888 5889 5889 5889 5890 5890 5891 5892 5892 5893 5894 5894 5895 5896 5897 5897 5898 5899 5899 5899 5899 5899 5899 5899 5899 5900 5900 5900 5900 5900 5900 5900 5901 5901 5901 5901 5901 5901 5901 5901 5901 5901 5901 5900 5899 5898 5898 5898 5897 5897 5897 5897
5845 5847 5849 5850 5851 5852 5854 5855 5856 5858 5860 5861 5863 5864 5865 5865 5866 5867 5868 5869 5871 5872 5873 5874 5875 5876 5877 5878 5879 5881 5882 5882 5882 5883 5883 5884 5884 5885 5886 5886 5887 5888 5889 5889 5890 5891 5891 5892 5893 5893 5894 5894 5894 5894 5894 5894 5894 5894 5895 5895 5895 5895 5895 5895 5896 5896 5896 5896 5896 5896 5896 5896 5896 5896 5896 5896 5895 5893 5893 5893 5892 5892 5891 5891 5892
5838 5840 5842 5844 5845 5847 5848 5849 5850 5852 5854 5855 5857 5858 5859 5860 5861 5862 5863 5864 5865 5866 5867 5868 5869 5870 5871 5872 5873 5874 5875 5876 5877 5877 5878 5878 5879 5880 5881 5881 5882 5883 5883 5884 5884 5885 5886 5886 5887 5887 5888 5888 5889 5889 5889 5889 5889 5889 5889 5889 5890 5890 5890 5890 5891 5891 5891 5891 5890 5890 5890 5890 5890 5890 5890 5890 5889 5888 5887 5887 5887 5886 5886 5886 5886
5831 5833 5835 5837 5838 5840 5841 5842 5844 5845 5847 5849 5850 5852 5853 5854 5855 5857 5858 5859 5860 5860 5861 5862 5863 5864 5865 5866 5867 5868 5869 5870 5871 5872 5872 5873 5874 5875 5875 5876 5877 5877 5878 5879 5879 5879 5880 5880 5881 5881 5882 5882 5882 5883 5883 5883 5883 5883 5883 5883 5884 5884 5884 5884 5884 5884 5884 5884 5884 5884 5884 5884 5884 5884 5884 5884 5883 5883 5882 5881 5881 5880 5880 5880 5880
5823 5825 5827 5829 5831 5833 5834 5836 5837 5838 5840 5841 5843 5845 5846 5848 5849 5850 5851 5853 5854 5855 5856 5857 5858 5859 5860 5861 5862 5862 5863 5864 5864 5865 5866 5867 5868 5869 5870 5870 5871 5872 5872 5873 5873 5874 5874 5874 5874 5875 5875 5875 5876 5876 5876 5876 5876 5876 5877 5877 5877 5877 5877 5877 5877 5877 5877 5877 5877 5877 5877 5877 5877 5877 5877 5877 5877 5877 5876 5875 5875 5874 5874 5873 5873
5816 5818 5820 5822 5823 5825 5827 5829 5830 5832 5833 5835 5836 5837 5839 5840 5842 5843 5844 5845 5847 5848 5849 5850 5852 5853 5854 5854 5855 5856 5857 5858 5858 5859 5860 5861 5862 5863 5863 5864 5865 5865 5866 5866 5867 5867 5868 5868 5868 5868 5868 5869 5869 5869 5870 5870 5870 5870 5870 5870 5870 5870 5870 5870 5870 5870 5870 5870 5870 5870 5870 5870 5870 5870 5870 5870 5870 5870 5869 5869 5868 5868 5867 5867 5866
5808 5810 5812 5814 5816 5817 5819 5821 5823 5825 5827 5828 5829 5830 5831 5833 5834 5836 5837 5838 5839 5840 5841 5843 5844 5846 5847 5848 5848 5849 5849 5850 5851 5852 5853 5854 5855 5856 5857 5857 5858 5859 5859 5859 5860 5860 5861 5861 5861 5861 5862 5862 5862 5862 5863 5863 5863 5863 5863 5863 5863 5863 5863 5863 5863 5862 5862 5862 5862 5862 5862 5862 5862 5862 5862 5862 5862 5862 5861 5861 5861 5860 5860 5860 5859
5801 5802 5803 5805 5807 5809 5811 5813 5815 5817 5819 5821 5822 5823 5824 5826 5827 5829 5830 5831 5832 5833 5834 5835 5837 5838 5839 5841 5841 5842 5842 5843 5844 5845 5846 5847 5847 5848 5849 5850 5851 5852 5852 5853 5853 5853 5854 5854 5854 5854 5855 5855 5855 5855 5855 5856 5856 5856 5855 5856 5856 5855 5856 5856 5855 5855 5854 5854 5854 5854 5854 5854 5854 5854 5854 5854 5854 5854 5853 5853 5853 5852 5852 5852 5852
5794 5795 5796 5797 5798 5800 5802 5805 5807 5809 5810 5812 5814 5815 5817 5818 5820 5822 5823 5823 5825 5826 5827 5828 5829 5830 5831 5833 5834 5835 5835 5835 5836 5837 5838 5839 5839 5840 5841 5842 5842 5843 5844 5845 5845 5846 5846 5846 5846 5847 5847 5847 5847 5847 5848 5848 5848 5848 5848 5848 5848 5848 5848 5848 5848 5847 5847 5846 5846 5846 5846 5846 5846 5846 5846 5846 5846 5845 5845 5844 5844 5844 5844 5843 5843
5786 5787 5788 5789 5791 5792 5794 5797 5799 5800 5802 5804 5805 5807 5809 5810 5812 5814 5815 5816 5817 5818 5819 5820 5822 5823 5824 5826 5826 5826 5827 5827 5828 5829 5830 5831 5831 5832 5833 5833 5834 5834 5834 5835 5836 5837 5838 5838 5839 5839 5839 5839 5839 5839 5839 5840 5840 5840 5840 5840 5840 5840 5840 5840 5839 5839 5839 5838 5838 5838 5837 5837 5837 5837 5837 5837 5837 5837 5836 5836 5835 5835 5835 5834 5834
5778 5780 5781 5782 5783 5785 5787 5789 5791 5793 5794 5796 5797 5798 5800 5802 5803 5805 5806 5808 5809 5810 5811 5813 5814 5815 5817 5819 5819 5818 5818 5819 5820 5821 5822 5823 5824 5825 5825 5826 5826 5826 5826 5826 5827 5827 5828 5829 5829 5830 5830 5831 5831 5831 5831 5831 5831 5831 5831 5831 5831 5831 5831 5831 5831 5830 5830 5830 5830 5830 5829 5828 5828 5828 5828 5828 5828 5828 5828 5827 5826 5826 5826 5826 5825
5771 5772 5773 5775 5776 5778 5779 5781 5783 5785 5787 5788 5789 5791 5792 5793 5794 5796 5797 5798 5800 5801 5803 5804 5806 5807 5809 5810 5810 5809 5810 5812 5812 5813 5814 5815 5816 5817 5818 5818 5817 5817 5818 5818 5818 5818 5819 5819 5819 5819 5820 5821 5821 5822 5822 5822 5822 5822 5822 5822 5822 5822 5822 5822 5821 5821 5821 5821 5821 5821 5820 5820 5819 5819 5818 5818 5818 5818 5818 5818 5817 5817 5817 5817 5816
5763 5765 5766 5768 5770 5771 5773 5774 5776 5777 5779 5780 5782 5783 5785 5785 5786 5787 5788 5789 5791 5792 5794 5796 5797 5799 5801 5801 5801 5801 5802 5804 5804 5804 5805 5807 5808 5809 5809 5809 5809 5809 5810 5810 5810 5810 5810 5810 5810 5810 5810 5811 5811 5812 5812 5812 5813 5813 5813 5812 5812 5812 5812 5812 5811 5811 5811 5811 5811 5811 5811 5810 5810 5809 5809 5808 5808 5807 5807 5807 5807 5807 5806 5806 5806
5756 5757 5759 5761 5763 5764 5766 5767 5768 5770 5771 5772 5774 5775 5776 5777 5778 5780 5781 5782 5783 5784 5786 5787 5788 5790 5791 5792 5792 5793 5794 5794 5795 5796 5797 5798 5799 5800 5801 5801 5800 5801 5801 5801 5801 5801 5801 5801 5801 5801 5801 5801 5801 5801 5801 5801 5801 5802 5802 5802 5802 5802 5802 5801 5801 5801 5801 5801 5801 5801 5801 5800 5800 5800 5799 5798 5797 5797 5796 5796 5796 5796 5796 5795 5795
5748 5750 5752 5754 5756 5757 5758 5760 5761 5762 5764 5765 5766 5767 5767 5769 5770 5772 5773 5774 5776 5777 5778 5779 5780 5781 5782 5782 5783 5784 5785 5785 5786 5786 5787 5788 5790 5791 5791 5792 5792 5792 5792 5791 5791 5792 5792 5791 5791 5791 5791 5791 5791 5791 5790 5790 5790 5790 5790 5790 5790 5791 5790 5790 5790 5789 5789 5790 5790 5790 5790 5790 5789 5789 5789 5788 5787 5786 5785 5785 5785 5784 5784 5784 5783
5741 5743 5744 5746 5748 5750 5751 5752 5754 5755 5756 5758 5758 5758 5759 5760 5762 5764 5765 5766 5768 5769 5769 5770 5772 5773 5773 5773 5774 5775 5775 5776 5777 5778 5778 5779 5779 5780 5781 5783 5783 5782 5781 5782 5782 5783 5782 5782 5782 5782 5782 5781 5781 5781 5780 5780 5779 5779 5778 5778 5778 5778 5778 5778 5778 5778 5778 5778 5778 5778 5778 5778 5777 5777 5777 5776 5775 5775 5774 5773 5773 5772 5772 5771 5771
5734 5736 5737 5739 5741 5742 5743 5745 5746 5747 5748 5749 5750 5750 5751 5753 5754 5755 5757 5758 5759 5760 5761 5762 5763 5764 5765 5765 5766 5766 5767 5767 5768 5769 5769 5770 5770 5771 5772 5773 5772 5771 5771 5772 5773 5773 5773 5773 5773 5772 5772 5771 5771 5771 5770 5769 5769 5768 5767 5767 5766 5766 5766 5765 5765 5765 5765 5765 5765 5765 5765 5765 5765 5764 5764 5763 5762 5762 5761 5761 5760 5760 5759 5759 5758
5727 5728 5730 5731 5733 5734 5736 5738 5739 5740 5740 5741 5741 5742 5744 5746 5746 5747 5749 5750 5750 5751 5753 5754 5755 5755 5756 5757 5757 5758 5758 5759 5759 5760 5760 5761 5761 5762 5763 5763 5762 5762 5762 5762 5762 5763 5763 5763 5763 5763 5762 5761 5761 5760 5759 5759 5758 5757 5756 5756 5755 5754 5754 5753 5753 5753 5753 5752 5752 5752 5752 5752 5752 5751 5751 5750 5749 5748 5748 5747 5747 5746 5746 5746 5745
5719 5721 5722 5723 5725 5726 5728 5730 5731 5731 5732 5733 5734 5736 5737 5738 5739 5740 5741 5741 5742 5743 5745 5746 5746 5747 5747 5748 5748 5749 5750 5750 5750 5751 5752 5752 5752 5753 5753 5753 5753 5753 5752 5752 5752 5753 5753 5753 5752 5752 5752 5751 5751 5750 5749 5748 5748 5747 5745 5745 5744 5743 5742 5742 5741 5741 5741 5740 5740 5740 5739 5739 5739 5738 5737 5736 5735 5734 5734 5733 5733 5732 5732 5732 5731
5711 5713 5714 5716 5717 5718 5720 5721 5722 5723 5725 5726 5726 5728 5729 5730 5731 5732 5733 5734 5735 5736 5736 5737 5738 5738 5739 5739 5740 5740 5741 5741 5742 5742 5743 5743 5744 5744 5744 5744 5744 5744 5743 5743 5743 5743 5743 5742 5742 5742 5741 5741 5740 5740 5739 5738 5737 5736 5734 5733 5732 5731 5730 5729 5729 5729 5728 5727 5727 5727 5726 5726 5725 5724 5723 5722 5720 5720 5719 5719 5719 5718 5718 5717 5717
5703 5705 5706 5708 5709 5710 5712 5713 5714 5716 5717 5718 5719 5720 5721 5722 5723 5724 5725 5726 5727 5728 5729 5729 5730 5731 5731 5732 5732 5732 5733 5733 5734 5734 5734 5734 5735 5735 5735 5735 5735 5735 5735 5735 5734 5734 5734 5733 5732 5732 5731 5731 5730 5730 5728 5728 5726 5725 5724 5722 5721 5719 5718 5717 5717 5716 5715 5715 5714 5714 5713 5712 5711 5710 5709 5708 5706 5705 5705 5705 5704 5704 5703 5703 5703
5694 5696 5698 5700 5701 5702 5703 5705 5706 5708 5709 5710 5711 5712 5713 5714 5715 5716 5717 5718 5719 5720 5721 5721 5722 5723 5724 5724 5724 5725 5725 5726 5726 5726 5726 5727 5727 5727 5727 5727 5727 5727 5727 5726 5726 5725 5725 5724 5723 5723 5722 5721 5720 5720 5719 5717 5716 5715 5713 5712 5710 5709 5707 5706 5705 5704 5703 5702 5702 5700 5699 5698 5697 5695 5694 5693 5692 5690 5690 5689 5689 5689 5688 5688 5688
5687 5688 5690 5692 5694 5695 5696 5697 5699 5700 5701 5702 5704 5705 5706 5707 5708 5709 5709 5710 5711 5712 5713 5713 5714 5715 5716 5716 5717 5717 5718 5718 5718 5718 5719 5719 5719 5719 5719 5719 5719 5719 5719 5718 5717 5717 5716 5715 5715 5714 5713 5712 5711 5710 5709 5707 5706 5704 5703 5701 5699 5698 5696 5694 5693 5691 5690 5689 5688 5687 5685 5683 5682 5681 5679 5678 5676 5675 5675 5674 5673 5673 5673 5672 5672
5680 5681 5682 5684 5686 5687 5688 5690 5691 5692 5693 5695 5696 5697 5698 5699 5700 5701 5702 5702 5703 5704 5705 5706 5706 5707 5708 5708 5709 5710 5710 5710 5711 5711 5711 5711 5711 5711 5711 5711 5711 5710 5710 5709 5709 5708 5708 5707 5706 5705 5704 5703 5702 5700 5699 5698 5696 5694 5692 5690 5688 5686 5685 5683 5681 5679 5677 5675 5674 5672 5670 5668 5667 5666 5664 5663 5661 5660 5659 5658 5657 5657 5656 5656 5656